Diese Webseite verwendet Cookies

Wir verwenden Cookies, um Inhalte zu personalisieren und die Zugriffe auf unsere Website zu analysieren. Weitere Informationen finden Sie in unserer Datenschutzerklärung. Bitte bestätigen Sie, dass Sie mit der Verwendung von Cookies einverstanden sind.

▲ Details ausblenden

Cookies sind kleine Textdateien, die von Webseiten verwendet werden, um die Benutzererfahrung effizienter zu gestalten, bestimmte Funktionen bereitzustellen oder um bestimmte Auswertungen zu ermöglichen.

Laut Gesetz können wir Cookies auf Ihrem Gerät speichern, wenn diese für den Betrieb dieser Seite unbedingt notwendig sind. Für alle anderen Cookie-Typen benötigen wir Ihre Erlaubnis.

Diese Seite verwendet unterschiedliche Cookie-Typen. Einige Cookies werden von Drittparteien platziert, die auf unseren Seiten erscheinen.

Notwendig - Notwendige Cookies helfen dabei, unsere Webseite benutzbar zu machen, indem sie Grundfunktionen wie den Login ermöglichen. Die Webseite kann ohne diese Cookies nicht richtig funktionieren.

NameAnbieterZweckAblaufTyp
PHPSESSIDwww.staemme-statistik.deBenötigt für LoginSessionHTTP
cookieacceptwww.staemme-statistik.deSpeichert ihre hier gewählten Einstellungen1 JahrHTTP

Präferenzen - Präferenz-Cookies ermöglichen unserer Webseite, sich an Informationen zu erinnern, die Sie eingestellt haben. Zum Beispiel Ihren bevorzugten Lesemodus und Ihre gewählte Ansicht (Desktop oder Mobil).

NameAnbieterZweckAblaufTyp
merklisteIDwww.staemme-statistik.deZur Speicherung der Merkliste1 JahrHTTP

Statistiken - Statistik-Cookies helfen uns zu verstehen, wie Sie mit unserer Webseite interagieren und daraus Abläufe analysieren und verbessern zu können. Informationen werden selbstverständlich anonym gesammelt.

NameAnbieterZweckAblaufTyp
_gidgoogle-analytics.comGoogle Analytics Statistiken1 TagHTTP
_gagoogle-analytics.comGoogle Analytics Statistiken2 JahreHTTP

Marketing - Marketing-Cookies helfen uns, das Webseitenangebot und die Präsentation von Produkten und Dienstleistungen besser auf individuelle Interessen (Alter, Wohnort, ...) abzustimmen.

NameAnbieterZweckAblaufTyp
Wird aktuell nicht verwendet

Suchergebnis (ausblenden)

Letzte 100 Adelungen auf Welt DE202

Ansicht filtern: oder nur im Radius von   Feldern um mein Dorf:
Datum / UhrzeitWeltDorfPunktealter Besitzerneuer Besitzer
27.06.2022 07:34:58DE203002 (494|443)10.239Kapesen25Timy17
27.06.2022 07:34:23DE191Barbarendorf (415|601)8.910---sascha228
27.06.2022 07:34:13DE203Barbarendorf (312|454)2.530---The System is a Joke v2
27.06.2022 07:33:32DE203eism (480|503)7.226KingDavies19Killer-Zeus
27.06.2022 07:32:47DE203Barbarendorf (639|365)2.662---iiBeaTz
27.06.2022 07:32:04DE198-Kattas auf Minen- (515|528)10.000KATTAS AUF STOLLENCommander Jesatori
27.06.2022 07:32:01DE191|Woran hat et jelegen? (642|633)9.763l3abyBeLLPhonix11
27.06.2022 07:31:53DE203Hildesheim (375|412)5.611Monty96Homer7
27.06.2022 07:31:52DE201015 (677|572)10.112Itachi UchihaMax chef
27.06.2022 07:30:24DE202Barbarendorf (391|500)1.862---Rockett
27.06.2022 07:30:15DE198[109] llllllllllllllllllllllllll (402|534)10.059PokerfaceKATTAS AUF STOLLEN
27.06.2022 07:30:10DE191Barbarendorf (418|605)11.105---sascha228
27.06.2022 07:29:48DEP15Barbarendorf (529|316)10.000---DADDY5194
27.06.2022 07:29:47DEP15Barbarendorf (452|416)9.605SensuriSensuri
27.06.2022 07:29:38DE202IlIlIlIlIlI (400|477)3.291böserbub89böserbub89
27.06.2022 07:29:38DE202IlIlIlIlIlI (400|477)3.291GoffyAufCrackböserbub89
27.06.2022 07:29:17DEP15Barbarendorf (444|683)1.454---Miss Raten
27.06.2022 07:28:59DEP14Barbarendorf (549|639)10.008drbraindrbrain
27.06.2022 07:28:59DEP14Barbarendorf (549|639)10.008---drbrain
27.06.2022 07:28:34DE191Barbarendorf (418|604)10.818---sascha228
27.06.2022 07:27:21DE200xxx (640|606)10.469AuberginenPfirsichSalatSchlafmützchen
27.06.2022 07:27:13DE195Barbarendorf (653|362)26---Ralle1919
27.06.2022 07:26:54DE203Barbarendorf (413|368)2.577---THE YOSHINETOR
27.06.2022 07:26:20DE202001 (497|545)8.354RyteJayBe
27.06.2022 07:26:16DE200sss (648|618)10.226AuberginenPfirsichSalatfekiks
27.06.2022 07:25:56DE203Lugner City 6 (561|536)7.6980hataraku0DR.Jekyll
27.06.2022 07:25:56DE202Barbarendorf (369|496)1.814---Graf Kuckucksberg
27.06.2022 07:25:49DE195Barbarendorf (387|316)60---emre3166
27.06.2022 07:24:04DEP14B28 (326|542)9.461Axel Nässekiwifruit90
27.06.2022 07:23:57DE198217 | profectos Glücksbude (603|582)9.673profectoprofecto
27.06.2022 07:22:37DE203Barbarendorf (558|351)1.453---epox
27.06.2022 07:22:21CH65002 A Jump torre10//@@ (531|516)9.560-Activ.-Activ.
27.06.2022 07:22:20CH65002 A Jump torre10//@@ (531|516)9.560Jost777-Activ.
27.06.2022 07:22:00DE203Barbarendorf (624|652)2.569---fab4
27.06.2022 07:20:08DE202Barbarendorf (487|621)1.753---zZzZz
27.06.2022 07:18:37DE200403|478 Gemüseplantage (403|478)10.211AuslogggemüseJAVVV
27.06.2022 07:16:22DE203Not Yours 007 ** (554|574)10.887RdexTrolly
27.06.2022 07:16:21DE202Barbarendorf (414|575)1.647---dangerdave7
27.06.2022 07:16:07DE201Barbarendorf (484|335)5.780---voitl
27.06.2022 07:16:02DE203Barbarendorf (589|681)2.391---FlyMan
27.06.2022 07:14:48DE203K34 Stahli Hüpf (468|338)6.990StahlherzAideen
27.06.2022 07:14:42DEP14Barbarendorf (422|595)10.019---Ullinow
27.06.2022 07:12:04DE203cashmo135s Dorf (606|564)3.715cashmo135UndercoverWRZ94
27.06.2022 07:11:42DE201Strufel Dorf II (639|659)852strufelrockylu
27.06.2022 07:10:48DEP15Barbarendorf (396|696)32MurxMurx
27.06.2022 07:10:48DEP15Barbarendorf (396|696)32---Murx
27.06.2022 07:10:02DE203Barbarendorf (688|585)1.965---cafe99999
27.06.2022 07:09:30DE201SDS (309|453)9.194danilowvDerHausmeister88
27.06.2022 07:09:01DE201Barbarendorf (669|627)1.409---Bruno88
27.06.2022 07:08:29CHP9Alles Izmir Wurst (428|615)7.303Izmir WurstxBaShyS
27.06.2022 07:08:03DE202Barbarendorf (447|434)1.868---Anker33
27.06.2022 07:07:39DE20312 Flötz )* (468|532)7.950IMPERATORMPLordDenethor
27.06.2022 07:07:36DE200Barbarendorf (411|699)340---lIzZ3L
27.06.2022 07:07:03DE203Barbarendorf (661|606)2.522---Kriewel
27.06.2022 07:06:46DE203Barbarendorf (357|370)2.521---grande6033
27.06.2022 07:06:30DE203FutureTimes Dorf (580|411)1.829FutureTimeHummiPeed
27.06.2022 07:05:19DE200S082 (367|406)10.134alex10109MissPresident
27.06.2022 07:05:10DE203Barbarendorf (426|366)2.522---Teparsan
27.06.2022 07:05:00CH66xBerishax (466|536)4.213xBerishaxNoggerlover17
27.06.2022 07:04:52CHP9Barbarendorf (382|421)253---alles bluna
27.06.2022 07:04:49DE203WirWarenMalStarss Dorf (383|500)1.023WirWarenMalStarsTulup23
27.06.2022 07:03:23DE203Barbarendorf (440|687)2.506---Totengraeber
27.06.2022 07:02:55DE203Zapogon Dorf West (375|504)3.475ZapogonTulup23
27.06.2022 07:01:11DE203Rage 04 (573|405)6.209kleineWaldfeesKiLeRiX
27.06.2022 07:01:04DE198lllllllllllllllllllllllllllllll (555|545)10.000ULT1M4T1VER H4RTZ3RCrowns
27.06.2022 07:00:53CH66Erlenbach (495|455)9.635yannkofAnfängerfänger
27.06.2022 06:59:19DE195Barbarendorf (638|357)77---*the killer*1
27.06.2022 06:58:51DE203Galway 04 (543|365)3.599HarryHole.shark.
27.06.2022 06:57:25DE1990057 (520|628)9.673CalungsodMaster Doku
27.06.2022 06:57:17DEP15Barbarendorf (477|288)6.780---König Astra
27.06.2022 06:54:39DE200Dom_062 (647|568)10.134dreckssau45Shooter
27.06.2022 06:54:37DE200Dom_102 (659|544)10.134dreckssau45Off-White Hipster
27.06.2022 06:54:15DE201coweteno.namozus Dorf 5 (515|285)208coweteno.namozuvoitl
27.06.2022 06:54:04DE202Barbarendorf (608|460)3.157---volker01
27.06.2022 06:54:02CH66Barbarendorf (555|505)513---feechen
27.06.2022 06:53:18DE203Barbarendorf (339|382)2.515---Mienos
27.06.2022 06:53:09DE201Sieger (613|504)10.109clsieger-*ExIt*-
27.06.2022 06:53:01CH65Icecream 005 (486|470)9.152Icecream-Activ.
27.06.2022 06:52:17DE203Barbarendorf (583|330)2.520---Mustang123
27.06.2022 06:52:00DE198-Kattas auf Minen- (500|494)10.000KATTAS AUF STOLLENgoatfarmer.
27.06.2022 06:51:26DE201Bonusdorf (286|481)48---Lokter
27.06.2022 06:50:33DE203Barbarendorf (648|563)6.043Ultima RatioImbaLanCe-
27.06.2022 06:50:24DE203033 | Ottomanen sind gemütlich (608|459)10.495Ottomaneare you scar7d?
27.06.2022 06:48:02DE200Ausguck (408|349)10.737SangolinJauchebomber
27.06.2022 06:47:39DEP14Kläranlage (384|271)9.751John-WickJohn-Wick
27.06.2022 06:45:11DE203Barbarendorf (327|423)2.588---HolyMoly09-
27.06.2022 06:44:38DEP15Barbarendorf (297|595)33---00-THOR-00
27.06.2022 06:44:31DE191Barbarendorf (474|622)10.495TikatikaTikatika
27.06.2022 06:44:10DE198Ibelin012 (622|459)10.019kingoftRiKul
27.06.2022 06:41:08DE202Barbarendorf (486|460)1.830---Spielsucht01
27.06.2022 06:40:54DEP15Barbarendorf (547|724)27---jungmichel
27.06.2022 06:40:31DEP15Barbarendorf (598|702)46Chris588nbasakum
27.06.2022 06:38:50DE20066:34:56 Arkon (646|635)9.737*Atlan*PASSI 70
27.06.2022 06:37:41DEP14Gaga052 (412|328)8.289Alex73Slasher
27.06.2022 06:37:25DE200From Malle with love (566|500)10.469Nuss1980Patti.
27.06.2022 06:37:17DE203Barbarendorf (316|429)2.503---phil26
27.06.2022 06:36:45DE198[046] llllllllllllllllllllllllll (479|568)10.160PokerfaceCommander Jesatori
27.06.2022 06:36:42DE191Barbarendorf (417|604)9.904sascha228LetItRoll
27.06.2022 06:36:24DE203Barbarendorf (519|687)1.077---saladin2
27.06.2022 06:34:41DE1990053 (521|629)9.899CalungsodMaster Doku